This is the latest recevied weather packets stored in our database for station/object K1RFS. If no packets are shown the sender has not sent any weather packets the latest 10 day(s).
| Time | Temp. | Humidity | Pressure | Rain* | Wind** | Luminosity | Snow |
|---|---|---|---|---|---|---|---|
| 1787546811 | 22.78° C | 50% | 1007.3 hPa | 0 mm | - | 0 W/m² | - |
| 1787546507 | 22.78° C | 49% | 1007.6 hPa | 0 mm | - | 0 W/m² | - |
| 1787546204 | 22.78° C | 52% | 1007.7 hPa | 0 mm | - | 0 W/m² | - |
| 1787545899 | 23.33° C | 49% | 1007.3 hPa | 0 mm | - | 0 W/m² | - |
| 1787545595 | 23.89° C | 45% | 1007.1 hPa | 0 mm | - | 0 W/m² | - |
| 1787545291 | 23.89° C | 43% | 1006.6 hPa | 0 mm | - | 0 W/m² | - |
| 1787544987 | 23.33° C | 45% | 1006.4 hPa | 0 mm | - | 0 W/m² | - |
| 1787544684 | 23.33° C | 48% | 1006.4 hPa | 0 mm | - | 0 W/m² | - |
| 1787544380 | 22.22° C | 48% | 1006.4 hPa | 0 mm | - | 0 W/m² | - |
| 1787544074 | 21.11° C | 55% | 1006.2 hPa | 0 mm | - | 0 W/m² | - |
| 1787543770 | 21.11° C | 60% | 1006.1 hPa | 0 mm | - | 0 W/m² | - |
| 1787543466 | 21.11° C | 60% | 1005.8 hPa | 0 mm | - | 0 W/m² | - |
| 1787543161 | 21.11° C | 62% | 1005.7 hPa | 0 mm | - | 0 W/m² | - |
| 1787542861 | 21.11° C | 60% | 1005.4 hPa | 0 mm | - | 0 W/m² | - |
| 1787542556 | 21.67° C | 60% | 1005 hPa | 0 mm | - | 0 W/m² | - |
| 1787542252 | 22.22° C | 55% | 1005 hPa | 0 mm | - | 0 W/m² | - |
| 1787541948 | 22.78° C | 49% | 1004.6 hPa | 0 mm | - | 0 W/m² | - |
| 1787541644 | 22.22° C | 51% | 1004.6 hPa | 0 mm | - | 0 W/m² | - |
| 1787541340 | 22.22° C | 55% | 1004.8 hPa | 0 mm | - | 0 W/m² | - |
| 1787541037 | 23.33° C | 50% | 1004.7 hPa | 0 mm | - | 0 W/m² | - |
| 1787540732 | 23.89° C | 46% | 1004.4 hPa | 0 mm | - | 0 W/m² | - |
| 1787540427 | 23.33° C | 41% | 1004.6 hPa | 0 mm | - | 0 W/m² | - |
| 1787540126 | 23.33° C | 47% | 1004.5 hPa | 0 mm | - | 0 W/m² | - |
| 1787539822 | 23.89° C | 47% | 1004.4 hPa | 0 mm | - | 0 W/m² | - |
| 1787539517 | 23.89° C | 39% | 1005.6 hPa | 0 mm | - | 0 W/m² | - |
* Rain latest hour (hover to see other rain measurements)
** Current wind speed in m/s (hover to see current wind gust speed)